K0VXP-1 Weather Reports


time (UTC)temp
C
wind
direction
speed
KPH
gust
KPH
rain 1hr
cm
rain 24hr
cm
rain mn
cm
humidity
%
barometer
mb
20260508064538 6 68 8.0 14.5 0.00 0.00 0.00 63 1020.6
20260508063046 7 82 9.7 12.9 0.00 0.00 0.00 63 1020.7
20260508061531 7 49 9.7 16.1 0.00 0.00 0.00 63 1020.8
20260508060032 6 68 8.0 14.5 0.00 0.00 0.00 63 1020.8
20260508054531 6 61 6.4 12.9 0.00 0.00 0.00 62 1020.9
20260508053030 6 74 8.0 12.9 0.00 0.00 0.00 62 1020.5
20260508051532 7 83 8.0 12.9 0.00 0.00 0.00 60 1020.8
20260508050036 7 57 6.4 9.7 0.00 0.00 0.00 61 1021.1
20260508044530 7 57 6.4 11.3 0.00 0.00 0.00 60 1020.9
20260508043046 7 81 6.4 12.9 0.00 0.00 0.00 60 1021.3
20260508041530 7 63 6.4 12.9 0.00 0.00 0.00 58 1021.3
20260508040037 7 69 6.4 12.9 0.00 0.00 0.00 58 1021.2
20260508034532 7 55 8.0 11.3 0.00 0.00 0.00 59 1021.3
20260508033032 8 61 6.4 12.9 0.00 0.00 0.00 58 1020.7
20260508031530 8 76 6.4 11.3 0.00 0.00 0.00 56 1020.6
20260508030039 8 63 4.8 6.4 0.00 0.00 0.00 55 1020.5
20260508024530 8 336 3.2 4.8 0.00 0.00 0.00 54 1020.4
20260508023031 8 336 1.6 6.4 0.00 0.00 0.00 52 1020.1
20260508021531 9 303 3.2 8.0 0.00 0.00 0.00 52 1020.1
20260508020040 10 316 4.8 11.3 0.00 0.00 0.00 51 1020.1
20260508014532 10 288 8.0 16.1 0.00 0.00 0.00 49 1020.2
20260508013034 11 277 9.7 17.7 0.00 0.00 0.00 48 1020.2
20260508011530 11 283 11.3 19.3 0.00 0.00 0.00 47 1020.1
20260508010033 11 286 8.0 17.7 0.00 0.00 0.00 46 1019.9
20260508004533 12 293 9.7 19.3 0.00 0.00 0.00 45 1019.9
20260508003031 12 295 12.9 22.5 0.00 0.00 0.00 43 1019.9
20260508001556 12 285 9.7 20.9 0.00 0.00 0.00 44 1019.9
20260508000029 12 308 11.3 20.9 0.00 0.00 0.00 43 1019.9
20260507234534 13 274 6.4 17.7 0.00 0.00 0.00 42 1019.8
20260507233031 13 305 8.0 19.3 0.00 0.00 0.00 42 1019.7
20260507231535 14 313 11.3 20.9 0.00 0.00 0.00 39 1019.9
20260507230032 15 300 6.4 14.5 0.00 0.00 0.00 42 1019.9
20260507224540 13 278 8.0 17.7 0.00 0.00 0.00 44 1020.0
20260507223031 13 263 6.4 22.5 0.00 0.00 0.00 41 1020.1
20260507221530 14 264 14.5 22.5 0.00 0.00 0.00 42 1020.3
20260507220040 15 192 16.1 25.7 0.00 0.00 0.00 41 1020.4
20260507214536 15 324 6.4 22.5 0.00 0.00 0.00 39 1020.7
20260507213033 14 284 8.0 22.5 0.00 0.00 0.00 41 1020.9
20260507211534 14 274 8.0 25.7 0.00 0.00 0.00 42 1021.2
20260507210031 13 204 12.9 27.4 0.00 0.00 0.00 42 1021.7
20260507204528 14 266 14.5 32.2 0.00 0.00 0.00 43 1021.4
20260507203034 13 323 11.3 24.1 0.00 0.00 0.00 46 1021.9
20260507201530 12 213 8.0 17.7 0.00 0.00 0.00 44 1022.2
20260507200030 12 281 11.3 19.3 0.00 0.00 0.00 45 1022.4
20260507194530 12 212 9.7 22.5 0.00 0.00 0.00 48 1022.2
20260507193032 12 257 12.9 24.1 0.00 0.00 0.00 46 1022.4
20260507191533 11 220 6.4 24.1 0.00 0.00 0.00 46 1022.5
20260507190032 10 235 11.3 20.9 0.00 0.00 0.00 47 1022.7
20260507184532 10 211 4.8 17.7 0.00 0.23 0.00 46 1022.9
20260507183029 9 296 9.7 19.3 0.00 0.23 0.00 49 1023.2
20260507181531 8 271 4.8 14.5 0.00 0.23 0.00 47 1023.2
20260507180030 8 260 6.4 14.5 0.00 0.23 0.00 51 1023.6
20260507174539 7 244 4.8 12.9 0.00 0.36 0.00 50 1023.5
20260507173035 7 272 8.0 16.1 0.00 0.36 0.00 51 1023.7
20260507171533 7 258 8.0 16.1 0.00 0.36 0.00 54 1023.6
20260507170040 7 277 3.2 12.9 0.00 0.36 0.00 54 1023.7
20260507164533 7 338 6.4 12.9 0.00 0.48 0.00 54 1023.7
20260507163031 7 217 4.8 12.9 0.00 0.48 0.00 55 1023.9
20260507161530 6 283 3.2 11.3 0.00 0.48 0.00 57 1024.0
20260507160034 5 103 1.6 11.3 0.00 0.48 0.00 58 1024.1
20260507154529 3 176 3.2 8.0 0.00 0.48 0.00 62 1024.4
20260507153029 3 234 4.8 9.7 0.00 0.48 0.00 62 1024.9
20260507151531 3 212 6.4 11.3 0.00 0.48 0.00 60 1024.9
20260507150032 2 320 1.6 6.4 0.00 0.48 0.00 60 1025.3
20260507144530 2 313 1.6 6.4 0.00 0.48 0.00 62 1025.5
20260507143035 1 104 1.6 6.4 0.00 0.48 0.00 64 1025.4
20260507141530 1 5 1.6 6.4 0.00 0.48 0.00 67 1025.7
20260507140030 0 335 1.6 6.4 0.00 0.48 0.00 70 1025.5
20260507134534 0 11 4.8 8.0 0.00 0.48 0.00 72 1025.5
20260507133031 -1 29 3.2 8.0 0.00 0.48 0.00 75 1025.3
20260507131536 -1 25 4.8 8.0 0.00 0.48 0.00 77 1025.2
20260507130032 -2 19 4.8 8.0 0.00 0.48 0.00 81 1025.1
20260507124534 -3 42 4.8 8.0 0.00 0.48 0.00 82 1025.0
20260507123030 -5 34 4.8 6.4 0.00 0.48 0.00 82 1025.0
20260507121531 -5 38 6.4 9.7 0.00 0.48 0.00 82 1024.7
20260507120039 -5 54 4.8 8.0 0.00 0.48 0.00 82 1024.7
20260507114529 -5 39 4.8 8.0 0.00 0.48 0.00 81 1024.7
20260507113033 -5 28 4.8 6.4 0.00 0.48 0.00 81 1024.7
20260507111530 -5 22 4.8 8.0 0.00 0.48 0.00 80 1024.7
20260507110030 -4 39 4.8 6.4 0.00 0.48 0.00 80 1024.8
20260507104531 -4 32 3.2 6.4 0.00 0.48 0.00 79 1024.7
20260507103033 -4 24 3.2 6.4 0.00 0.48 0.00 78 1024.7
20260507101532 -3 31 4.8 8.0 0.00 0.48 0.00 77 1024.6
20260507100038 -3 30 4.8 8.0 0.00 0.48 0.00 76 1024.4
20260507094532 -3 28 3.2 6.4 0.00 0.48 0.00 74 1024.5
20260507093030 -3 57 3.2 6.4 0.00 0.48 0.00 72 1024.5
20260507091531 -3 34 3.2 6.4 0.00 0.48 0.00 72 1024.7
20260507090035 -2 121 1.6 6.4 0.00 0.48 0.00 70 1024.8
20260507084533 -2 0 0.0 4.8 0.00 0.48 0.00 70 1024.7
20260507083031 -2 13 3.2 6.4 0.00 0.48 0.00 71 1024.6
20260507081542 -3 63 4.8 6.4 0.00 0.48 0.00 71 1024.8
20260507080031 -2 44 4.8 6.4 0.00 0.48 0.00 69 1025.0
20260507074551 -2 90 4.8 8.0 0.00 0.48 0.00 69 1025.0
20260507073031 -2 0 0.0 3.2 0.00 0.48 0.00 69 1025.3
20260507071530 -2 0 1.6 12.9 0.00 0.48 0.00 70 1025.0
20260507070030 -2 69 6.4 12.9 0.00 0.48 0.00 71 1025.0